Погода в Первомайке

Россия / Московская область     55°33′07″N   38°10′44″E
темп.,
°C
ветер,
м/с
пор.,
м/с
влажн.,
%
обл.,
%
осадки,
мм/ч
давл.,
гПа
погр.,
м
15 мая, сб
сб1500:00+13в489880 0.0 1011177
03:00+14юв51196100 2.0 1010250
06:00+16вюв379669 0.3 1008164
09:00+20юв578784 1.2 1008600
12:00+23ююз57658 0.3 10081394
15:00+22ююз68655 1.0 10081378
18:00+19ююз510765 1.4 1009537
21:00+14ю411905 1.9 1010224
16 мая, вс
вс1600:00+13ю412936 0.0 1010318
03:00+12ююз4119617 0.0 1011301
06:00+13ююз410951 0.0 1012347
09:00+17ююз58786 0.0 1013730
12:00+20ююз79647 0.6 10131586
15:00+21ююз685939 0.9 10132016
18:00+19юз48720 0.3 1013564
21:00+15юз33860 0.3 101427
17 мая, пн
пн1700:00+13юз2288100 0.0 101510
03:00+12юв118886 0.0 101510
06:00+14вюв348819 0.0 101691
09:00+19вюв457393 0.0 1015453
12:00+23вюв565982 0.0 1014994
15:00+25юв585816 0.0 10121231
18:00+23юв5107387 0.0 1011610
21:00+18юв514865 0.0 1011305
18 мая, вт
вт1800:00+16юв4138963 0.0 1010285
03:00+15вюв5148454 0.0 1009329
06:00+15юв5137767 0.0 1009321
09:00+20юв6126877 0.0 1008528
12:00+24юв81560100 0.0 10081127
15:00+24ююв81460100 0.0 10071316
18:00+22ююв7146639 0.0 1006943
21:00+18ююв498311 0.0 1006225
19 мая, ср
ср1900:00+15ююв389537 0.5 1007173
03:00+15юв389312 0.5 1006187
06:00+15юв4993100 0.0 1005275
09:00+19юв6979100 0.1 1004581
12:00+21юв71273100 1.2 10021423
15:00+17ю131888100 4.3 10021304
18:00+16ююв813855 1.7 10021019
21:00+13ю6139210 3.1 1001566